User: anonymous   Login
Location: Fairmont
(43.6520°N, 94.4610°W)
Time: 18:17:07
(UTC-05:00)
Language:

Cosmos-2242 - Orbit

View from above orbital plane
View from above orbital plane
View from above satellite
View from above satellite

Ground track
Ground track

The orbit data is extracted from the following two-line orbital elements,

1 22626U 93024A   15186.58909820  .00000902  00000-0  97734-4 0  9993
2 22626 082.5218 353.3318 0018450 329.4530 030.5611 14.87029255200221
Epoch (UTC): 05 July 2015 14:08:18
Eccentricity: 0.0018450
inclination: 82.5218°
perigee height: 594 km
apogee height: 620 km
right ascension of ascending node: 353.3318°
argument of perigee: 329.4530°
revolutions per day: 14.87029255
mean anomaly at epoch: 30.5611°
orbit number at epoch: 20022

The dashed part of the orbit path shows where the satellite is in the earth's shadow,  

DLR